Time,TemperatureF,DewpointF,PressureIn,WindDirection,WindDirectionDegrees,WindSpeedMPH,WindSpeedGustMPH,Humidity,HourlyPrecipIn,Conditions,Clouds,dailyrainin,SoftwareType,DateUTC
2013-11-08 00:09:00,40.7,35.0,29.95,SSW,200,7.0,12.0,79,0.00,,,0.00,weatherlink.com 1.10,2013-11-08 05:09:00,
2013-11-08 00:25:00,40.2,35.0,29.96,WNW,290,5.0,6.0,83,0.00,,,0.00,weatherlink.com 1.10,2013-11-08 05:25:00,
2013-11-08 00:40:00,39.7,36.0,29.96,West,278,4.0,9.0,87,0.00,,,0.00,weatherlink.com 1.10,2013-11-08 05:40:00,
2013-11-08 00:55:00,39.1,36.0,29.96,WSW,254,3.0,8.0,89,0.00,,,0.00,weatherlink.com 1.10,2013-11-08 05:55:00,
2013-11-08 01:10:00,38.7,36.0,29.97,SSW,213,0.0,8.0,88,0.00,,,0.00,weatherlink.com 1.10,2013-11-08 06:10:00,
2013-11-08 01:25:00,38.6,35.0,29.98,WNW,297,3.0,15.0,88,0.00,,,0.00,weatherlink.com 1.10,2013-11-08 06:25:00,
2013-11-08 01:40:00,38.3,35.0,29.98,NW,317,0.0,4.0,88,0.00,,,0.00,weatherlink.com 1.10,2013-11-08 06:40:00,
2013-11-08 01:55:00,38.3,35.0,29.97,West,277,2.0,6.0,88,0.00,,,0.00,weatherlink.com 1.10,2013-11-08 06:55:00,
2013-11-08 02:10:00,38.4,35.0,29.98,SW,229,4.0,8.0,86,0.00,,,0.00,weatherlink.com 1.10,2013-11-08 07:10:00,
2013-11-08 02:25:00,38.8,34.0,29.98,SW,221,0.0,8.0,82,0.00,,,0.00,weatherlink.com 1.10,2013-11-08 07:25:00,
2013-11-08 02:40:00,38.8,33.0,29.98,WNW,299,0.0,11.0,79,0.00,,,0.00,weatherlink.com 1.10,2013-11-08 07:40:00,
2013-11-08 02:55:00,39.0,31.0,29.98,South,190,4.0,14.0,74,0.00,,,0.00,weatherlink.com 1.10,2013-11-08 07:55:00,
2013-11-08 03:10:00,38.7,30.0,29.98,NW,313,0.0,6.0,72,0.00,,,0.00,weatherlink.com 1.10,2013-11-08 08:10:00,
2013-11-08 03:25:00,38.3,30.0,29.97,NW,306,0.0,6.0,72,0.00,,,0.00,weatherlink.com 1.10,2013-11-08 08:25:00,
2013-11-08 03:40:00,37.8,30.0,29.98,WSW,256,0.0,6.0,73,0.00,,,0.00,weatherlink.com 1.10,2013-11-08 08:40:00,
2013-11-08 03:55:00,37.2,30.0,29.99,WSW,256,0.0,6.0,74,0.00,,,0.00,weatherlink.com 1.10,2013-11-08 08:55:00,
2013-11-08 04:10:00,36.6,29.0,29.99,WSW,248,0.0,5.0,75,0.00,,,0.00,weatherlink.com 1.10,2013-11-08 09:10:00,
2013-11-08 04:25:00,36.2,29.0,30.00,West,279,2.0,4.0,76,0.00,,,0.00,weatherlink.com 1.10,2013-11-08 09:25:00,
2013-11-08 04:40:00,36.0,29.0,30.00,SW,217,0.0,6.0,76,0.00,,,0.00,weatherlink.com 1.10,2013-11-08 09:40:00,
2013-11-08 04:55:00,35.7,29.0,30.00,WNW,286,0.0,5.0,76,0.00,,,0.00,weatherlink.com 1.10,2013-11-08 09:55:00,
2013-11-08 05:10:00,35.3,29.0,30.00,West,276,0.0,6.0,77,0.00,,,0.00,weatherlink.com 1.10,2013-11-08 10:10:00,
2013-11-08 05:25:00,35.0,28.0,30.01,SW,231,0.0,2.0,76,0.00,,,0.00,weatherlink.com 1.10,2013-11-08 10:25:00,
2013-11-08 05:40:00,34.6,28.0,30.01,WNW,302,0.0,4.0,77,0.00,,,0.00,weatherlink.com 1.10,2013-11-08 10:40:00,
2013-11-08 05:55:00,34.4,28.0,30.02,WNW,288,0.0,4.0,76,0.00,,,0.00,weatherlink.com 1.10,2013-11-08 10:55:00,
2013-11-08 06:10:00,34.3,27.0,30.02,NNW,340,1.0,1.0,76,0.00,,,0.00,weatherlink.com 1.10,2013-11-08 11:10:00,
2013-11-08 06:25:00,34.1,27.0,30.03,WNW,294,0.0,0.0,76,0.00,,,0.00,weatherlink.com 1.10,2013-11-08 11:25:00,
2013-11-08 06:40:00,34.0,27.0,30.04,WSW,252,0.0,0.0,76,0.00,,,0.00,weatherlink.com 1.10,2013-11-08 11:40:00,
2013-11-08 06:55:00,33.7,27.0,30.04,WSW,252,0.0,0.0,76,0.00,,,0.00,weatherlink.com 1.10,2013-11-08 11:55:00,
2013-11-08 07:10:00,33.7,27.0,30.04,WSW,251,0.0,3.0,76,0.00,,,0.00,weatherlink.com 1.10,2013-11-08 12:10:00,
2013-11-08 07:25:00,33.7,27.0,30.05,SW,224,0.0,0.0,76,0.00,,,0.00,weatherlink.com 1.10,2013-11-08 12:25:00,
2013-11-08 07:40:00,34.1,27.0,30.05,WSW,250,0.0,5.0,76,0.00,,,0.00,weatherlink.com 1.10,2013-11-08 12:40:00,
2013-11-08 07:56:00,34.6,28.0,30.06,West,260,0.0,4.0,76,0.00,,,0.00,weatherlink.com 1.10,2013-11-08 12:56:00,
2013-11-08 08:11:00,35.3,28.0,30.06,West,262,0.0,6.0,76,0.00,,,0.00,weatherlink.com 1.10,2013-11-08 13:11:00,
2013-11-08 08:26:00,36.6,29.0,30.06,WSW,250,0.0,6.0,75,0.00,,,0.00,weatherlink.com 1.10,2013-11-08 13:26:00,
2013-11-08 08:41:00,38.0,31.0,30.06,WNW,292,0.0,9.0,75,0.00,,,0.00,weatherlink.com 1.10,2013-11-08 13:41:00,
2013-11-08 08:56:00,39.0,32.0,30.06,NW,317,0.0,11.0,75,0.00,,,0.00,weatherlink.com 1.10,2013-11-08 13:56:00,
2013-11-08 09:11:00,40.0,32.0,30.06,NNW,338,6.0,10.0,73,0.00,,,0.00,weatherlink.com 1.10,2013-11-08 14:11:00,
2013-11-08 09:26:00,40.9,33.0,30.06,WNW,284,6.0,9.0,73,0.00,,,0.00,weatherlink.com 1.10,2013-11-08 14:26:00,
2013-11-08 09:41:00,41.3,33.0,30.05,WNW,284,0.0,16.0,71,0.00,,,0.00,weatherlink.com 1.10,2013-11-08 14:41:00,
2013-11-08 09:56:00,42.7,34.0,30.05,WNW,287,3.0,8.0,70,0.00,,,0.00,weatherlink.com 1.10,2013-11-08 14:56:00,
2013-11-08 10:11:00,43.2,32.0,30.06,NW,306,10.0,16.0,66,0.00,,,0.00,weatherlink.com 1.10,2013-11-08 15:11:00,
2013-11-08 10:26:00,42.9,32.0,30.06,WSW,258,4.0,15.0,66,0.01,,,0.01,weatherlink.com 1.10,2013-11-08 15:26:00,
2013-11-08 10:41:00,43.3,32.0,30.06,WNW,290,5.0,12.0,64,0.01,,,0.01,weatherlink.com 1.10,2013-11-08 15:41:00,
2013-11-08 10:56:00,44.0,31.0,30.06,NW,304,5.0,12.0,61,0.01,,,0.01,weatherlink.com 1.10,2013-11-08 15:56:00,
2013-11-08 11:11:00,43.9,31.0,30.06,SSW,209,4.0,13.0,62,0.01,,,0.01,weatherlink.com 1.10,2013-11-08 16:11:00,
2013-11-08 11:26:00,44.9,32.0,30.06,NNW,341,7.0,11.0,60,0.00,,,0.01,weatherlink.com 1.10,2013-11-08 16:26:00,
2013-11-08 11:41:00,44.6,30.0,30.06,SW,229,10.0,19.0,58,0.00,,,0.01,weatherlink.com 1.10,2013-11-08 16:41:00,
2013-11-08 11:56:00,45.5,31.0,30.05,WNW,290,5.0,20.0,58,0.00,,,0.01,weatherlink.com 1.10,2013-11-08 16:56:00,
2013-11-08 12:11:00,44.6,30.0,30.05,West,274,14.0,17.0,56,0.00,,,0.01,weatherlink.com 1.10,2013-11-08 17:11:00,
2013-11-08 12:26:00,43.8,29.0,30.06,NW,310,5.0,19.0,56,0.00,,,0.01,weatherlink.com 1.10,2013-11-08 17:26:00,
2013-11-08 12:41:00,43.6,30.0,30.06,West,261,5.0,17.0,58,0.00,,,0.01,weatherlink.com 1.10,2013-11-08 17:41:00,
2013-11-08 12:56:00,43.6,31.0,30.06,West,261,7.0,15.0,61,0.00,,,0.01,weatherlink.com 1.10,2013-11-08 17:56:00,
2013-11-08 13:11:00,45.2,30.0,30.05,WNW,301,11.0,15.0,55,0.00,,,0.01,weatherlink.com 1.10,2013-11-08 18:11:00,
2013-11-08 13:26:00,44.6,29.0,30.06,North,355,5.0,11.0,55,0.00,,,0.01,weatherlink.com 1.10,2013-11-08 18:26:00,
2013-11-08 13:41:00,44.7,30.0,30.06,NW,319,0.0,12.0,56,0.00,,,0.01,weatherlink.com 1.10,2013-11-08 18:41:00,
2013-11-08 13:56:00,46.2,30.0,30.07,NW,304,0.0,12.0,54,0.00,,,0.01,weatherlink.com 1.10,2013-11-08 18:56:00,
2013-11-08 14:11:00,45.0,28.0,30.07,NW,325,5.0,16.0,51,0.00,,,0.01,weatherlink.com 1.10,2013-11-08 19:11:00,
2013-11-08 14:26:00,45.0,29.0,30.08,NNW,327,0.0,15.0,53,0.00,,,0.01,weatherlink.com 1.10,2013-11-08 19:26:00,
2013-11-08 14:41:00,45.3,28.0,30.08,NW,309,8.0,16.0,52,0.00,,,0.01,weatherlink.com 1.10,2013-11-08 19:41:00,
2013-11-08 14:56:00,45.6,29.0,30.09,West,263,9.0,12.0,53,0.00,,,0.01,weatherlink.com 1.10,2013-11-08 19:56:00,
2013-11-08 15:11:00,44.9,29.0,30.09,WNW,302,6.0,17.0,55,0.00,,,0.00,weatherlink.com 1.10,2013-11-08 20:11:00,
2013-11-08 15:26:00,44.7,31.0,30.10,WNW,303,3.0,10.0,58,0.00,,,0.00,weatherlink.com 1.10,2013-11-08 20:26:00,
2013-11-08 15:41:00,44.2,30.0,30.11,NNW,333,7.0,13.0,57,0.00,,,0.00,weatherlink.com 1.10,2013-11-08 20:41:00,
2013-11-08 15:56:00,44.1,30.0,30.11,NW,314,4.0,13.0,58,0.00,,,0.00,weatherlink.com 1.10,2013-11-08 20:56:00,
2013-11-08 16:11:00,43.8,29.0,30.11,SW,223,3.0,13.0,56,0.00,,,0.00,weatherlink.com 1.10,2013-11-08 21:11:00,
2013-11-08 16:26:00,43.1,29.0,30.12,NNW,339,5.0,14.0,58,0.00,,,0.00,weatherlink.com 1.10,2013-11-08 21:26:00,
2013-11-08 16:41:00,42.5,29.0,30.12,NNW,334,5.0,9.0,60,0.00,,,0.00,weatherlink.com 1.10,2013-11-08 21:41:00,
2013-11-08 16:56:00,41.9,30.0,30.13,NW,310,3.0,8.0,62,0.00,,,0.00,weatherlink.com 1.10,2013-11-08 21:56:00,
2013-11-08 17:11:00,41.3,29.0,30.14,NW,306,0.0,5.0,63,0.00,,,0.00,weatherlink.com 1.10,2013-11-08 22:11:00,
2013-11-08 17:26:00,41.2,30.0,30.14,WNW,294,4.0,6.0,64,0.00,,,0.00,weatherlink.com 1.10,2013-11-08 22:26:00,
2013-11-08 17:42:00,41.2,30.0,30.15,NW,309,0.0,4.0,64,0.00,,,0.00,weatherlink.com 1.10,2013-11-08 22:42:00,
2013-11-08 17:57:00,41.3,29.0,30.15,West,269,0.0,7.0,63,0.00,,,0.00,weatherlink.com 1.10,2013-11-08 22:57:00,
2013-11-08 18:12:00,41.2,29.0,30.16,WSW,257,0.0,7.0,61,0.00,,,0.00,weatherlink.com 1.10,2013-11-08 23:12:00,
2013-11-08 18:27:00,41.2,28.0,30.17,WNW,286,0.0,9.0,60,0.00,,,0.00,weatherlink.com 1.10,2013-11-08 23:27:00,
2013-11-08 18:42:00,40.8,28.0,30.17,WNW,287,4.0,4.0,61,0.00,,,0.00,weatherlink.com 1.10,2013-11-08 23:42:00,
2013-11-08 18:57:00,40.4,28.0,30.18,WNW,283,0.0,10.0,62,0.00,,,0.00,weatherlink.com 1.10,2013-11-08 23:57:00,
2013-11-08 19:12:00,40.1,28.0,30.18,West,273,0.0,7.0,62,0.00,,,0.00,weatherlink.com 1.10,2013-11-09 00:12:00,
2013-11-08 19:27:00,39.8,28.0,30.19,WNW,289,0.0,0.0,62,0.00,,,0.00,weatherlink.com 1.10,2013-11-09 00:27:00,
2013-11-08 19:42:00,39.4,28.0,30.19,West,281,0.0,2.0,63,0.00,,,0.00,weatherlink.com 1.10,2013-11-09 00:42:00,
2013-11-08 19:57:00,39.0,28.0,30.19,West,279,3.0,7.0,64,0.00,,,0.00,weatherlink.com 1.10,2013-11-09 00:57:00,
2013-11-08 20:12:00,39.0,28.0,30.19,West,279,0.0,6.0,64,0.00,,,0.00,weatherlink.com 1.10,2013-11-09 01:12:00,
2013-11-08 20:27:00,38.9,28.0,30.20,West,277,0.0,0.0,64,0.00,,,0.00,weatherlink.com 1.10,2013-11-09 01:27:00,
2013-11-08 20:42:00,38.8,27.0,30.20,WNW,289,0.0,6.0,64,0.00,,,0.00,weatherlink.com 1.10,2013-11-09 01:42:00,
2013-11-08 20:57:00,38.8,27.0,30.20,WNW,284,0.0,6.0,64,0.00,,,0.00,weatherlink.com 1.10,2013-11-09 01:57:00,
2013-11-08 21:12:00,38.8,28.0,30.21,West,281,0.0,7.0,65,0.00,,,0.00,weatherlink.com 1.10,2013-11-09 02:12:00,
2013-11-08 21:27:00,38.4,28.0,30.21,West,266,0.0,6.0,66,0.00,,,0.00,weatherlink.com 1.10,2013-11-09 02:27:00,
2013-11-08 21:42:00,38.6,28.0,30.22,West,269,0.0,6.0,66,0.00,,,0.00,weatherlink.com 1.10,2013-11-09 02:42:00,
2013-11-08 21:57:00,38.7,29.0,30.22,SW,217,0.0,1.0,67,0.00,,,0.00,weatherlink.com 1.10,2013-11-09 02:57:00,
2013-11-08 22:12:00,38.7,29.0,30.22,WSW,256,0.0,4.0,67,0.00,,,0.00,weatherlink.com 1.10,2013-11-09 03:12:00,
2013-11-08 22:27:00,38.8,29.0,30.22,West,278,0.0,6.0,67,0.00,,,0.00,weatherlink.com 1.10,2013-11-09 03:27:00,
2013-11-08 22:42:00,38.7,29.0,30.23,West,274,0.0,4.0,67,0.00,,,0.00,weatherlink.com 1.10,2013-11-09 03:42:00,
2013-11-08 22:57:00,38.5,29.0,30.23,WNW,302,0.0,10.0,68,0.00,,,0.00,weatherlink.com 1.10,2013-11-09 03:57:00,
2013-11-08 23:12:00,38.2,28.0,30.24,NW,307,0.0,6.0,68,0.00,,,0.00,weatherlink.com 1.10,2013-11-09 04:12:00,
2013-11-08 23:27:00,37.7,28.0,30.24,SSW,210,0.0,0.0,69,0.00,,,0.00,weatherlink.com 1.10,2013-11-09 04:27:00,
2013-11-08 23:42:00,37.1,28.0,30.23,WSW,241,0.0,0.0,70,0.00,,,0.00,weatherlink.com 1.10,2013-11-09 04:42:00,
2013-11-08 23:57:00,36.5,28.0,30.24,WSW,241,0.0,0.0,71,0.00,,,0.00,weatherlink.com 1.10,2013-11-09 04:57:00,